Location: Altmatt
(47.1333°N, 8.7000°E)
Time: 02:59:24
(UTC+00:00)

CZ-2C R/B - Pass Details

Date: 13 July 2020
Orbit: 641 x 704 km, 98.4° (Epoch: 04 August)

Event Time Altitude Azimuth Distance (km) Brightness Sun altitude
Rises 19:54:47 0° 12° (NNE) 3,105 7.6 -5.8°
Reaches altitude 10° 19:57:03 10° 10° (N) 2,183 6.8 -6.1°
Maximum altitude 20:01:50 73° 287° (WNW) 740 4.2 -6.7°
Drops below altitude 10° 20:06:33 10° 203° (SSW) 2,158 6.1 -7.2°
Sets 20:08:47 0° 202° (SSW) 3,065 6.9 -7.5°
